Find KUIPER-00409

NORAD ID: 68925 Int'l Des: 2026-098G Owner: KUIP Country: US Constellation: amazon-leo operational
LEOCIRCULAR

Current View

Loading 3D Globe...

About KUIPER-00409

KUIPER-00409 (NORAD 68925) is a amazon-leo constellation satellite launched Apr 30, 2026 by KUIP of US. It operates in LEO, CIRCULAR orbit with a mass of 490.00 kg.

About KUIPER-00409

Description loading...

Upcoming Passes

Passes for default location (London). Set your location on the main map for personalized predictions.

Altitude History

Loading altitude history...

Two-Line Element Set

1 68925U 26098G 26170.41412350 .00018220 00000-0 59159-3 0 9996
2 68925 51.8758 57.4143 0006524 164.1449 195.9741 15.31976989 7681
Epoch: Jun 19, 2026 • Age: 16 hours

Current Status

Altitude 465.8 km
Velocity 7.64 km/s
Sub-Earth Point 3.61°N, 72.36°W
Launch Date Apr 30, 2026
Age 0.1 years
Type internet

Technical Details

Classification Payload
Mass 490.00 kg
Dry Mass 490.00 kg
Total Mass 490.00 kg
Length 1.80 m
Diameter 0.70 m
Span 5.00 m
Shape Box + 2 pan
Manufacturer KUIP
Bus Type Kuiper
Phase Status In Orbit
Owner/State KUIP/US

Most Searched